CW5020 Weather Reports


time (UTC)temp
C
wind
direction
speed
KPH
gust
KPH
rain 1hr
cm
rain 24hr
cm
rain mn
cm
humidity
%
barometer
mb
20260906121503 19 34 0.0 1.6 0.00 0.00 0.00 93 1018.6
20260906121008 19 34 0.0 1.6 0.00 0.00 0.00 93 1018.6
20260906120503 19 34 0.0 1.6 0.00 0.00 0.00 93 1018.5
20260906120010 19 34 0.0 0.0 0.00 0.00 0.00 92 1018.5
20260906114502 19 34 0.0 1.6 0.00 0.00 0.00 92 1018.3
20260906114008 19 34 0.0 1.6 0.00 0.00 0.00 92 1018.2
20260906113503 19 34 0.0 1.6 0.00 0.00 0.00 92 1018.1
20260906113007 19 34 0.0 1.6 0.00 0.00 0.00 92 1018.1
20260906112004 19 34 0.0 3.2 0.00 0.00 0.00 92 1017.9
20260906111503 19 34 0.0 1.6 0.00 0.00 0.00 92 1017.9
20260906110503 19 34 0.0 1.6 0.00 0.00 0.00 92 1017.9
20260906110010 19 34 0.0 1.6 0.00 0.00 0.00 92 1017.9
20260906105503 19 34 1.6 6.4 0.00 0.00 0.00 92 1017.9
20260906104506 20 34 0.0 4.8 0.00 0.00 0.00 92 1017.7
20260906104004 20 34 0.0 1.6 0.00 0.00 0.00 91 1017.5
20260906103505 20 34 0.0 1.6 0.00 0.00 0.00 91 1017.5
20260906103004 20 34 0.0 3.2 0.00 0.00 0.00 91 1017.4
20260906102503 20 34 0.0 4.8 0.00 0.00 0.00 91 1017.3
20260906102004 20 34 0.0 4.8 0.00 0.00 0.00 91 1017.4
20260906101004 20 34 0.0 3.2 0.00 0.00 0.00 91 1017.5
20260906100505 20 34 0.0 1.6 0.00 0.00 0.00 91 1017.5
20260906100006 20 34 0.0 3.2 0.00 0.00 0.00 91 1017.4
20260906095502 20 34 0.0 3.2 0.00 0.00 0.00 91 1017.3
20260906095004 20 34 0.0 3.2 0.00 0.00 0.00 91 1017.3
20260906094503 20 34 0.0 3.2 0.00 0.00 0.00 91 1017.3
20260906094003 20 34 0.0 4.8 0.00 0.00 0.00 91 1017.1
20260906093004 20 34 0.0 3.2 0.00 0.00 0.00 90 1017.3
20260906092727 20 34 0.0 1.6 0.00 0.00 0.00 90 1017.1
20260906092003 20 34 0.0 1.6 0.00 0.00 0.00 90 1017.1
20260906091503 20 34 0.0 1.6 0.00 0.00 0.00 90 1017.1
20260906091004 20 34 0.0 3.2 0.00 0.00 0.00 90 1017.0
20260906090501 20 34 0.0 3.2 0.00 0.00 0.00 90 1017.0
20260906090007 20 34 0.0 1.6 0.00 0.00 0.00 90 1017.0
20260906085503 20 34 0.0 0.0 0.00 0.00 0.00 89 1017.0
20260906085003 20 34 0.0 0.0 0.00 0.00 0.00 89 1016.9
20260906084505 20 34 0.0 0.0 0.00 0.00 0.00 89 1017.0
20260906084007 20 34 0.0 0.0 0.00 0.00 0.00 89 1017.0
20260906083503 20 34 0.0 0.0 0.00 0.00 0.00 89 1017.0
20260906082502 20 34 0.0 0.0 0.00 0.00 0.00 89 1017.0
20260906081506 20 34 0.0 0.0 0.00 0.00 0.00 88 1017.0
20260906081003 21 34 0.0 0.0 0.00 0.00 0.00 88 1017.1
20260906080502 21 34 0.0 0.0 0.00 0.00 0.00 88 1017.3
20260906080003 21 34 0.0 0.0 0.00 0.00 0.00 88 1017.2
20260906075502 21 34 0.0 0.0 0.00 0.00 0.00 89 1017.3
20260906075003 21 34 0.0 0.0 0.00 0.00 0.00 89 1017.2
20260906074005 21 34 0.0 1.6 0.00 0.00 0.00 89 1017.1
20260906073004 21 34 0.0 0.0 0.00 0.00 0.00 88 1017.2
20260906072502 21 34 0.0 0.0 0.00 0.00 0.00 88 1017.3
20260906072004 21 34 0.0 0.0 0.00 0.00 0.00 88 1017.2
20260906071505 21 34 0.0 0.0 0.00 0.00 0.00 88 1017.3
20260906071005 21 34 0.0 0.0 0.00 0.00 0.00 88 1017.5
20260906070502 21 34 0.0 0.0 0.00 0.00 0.00 88 1017.4
20260906070003 21 34 0.0 0.0 0.00 0.00 0.00 88 1017.2
20260906065502 21 34 0.0 0.0 0.00 0.00 0.00 88 1017.3
20260906065004 21 23 0.0 1.6 0.00 0.00 0.00 88 1017.3
20260906064503 21 23 0.0 1.6 0.00 0.00 0.00 88 1017.3
20260906064003 21 23 0.0 1.6 0.00 0.00 0.00 87 1017.2
20260906063503 21 23 0.0 0.0 0.00 0.00 0.00 87 1017.2
20260906063007 21 23 0.0 0.0 0.00 0.00 0.00 87 1017.2
20260906062503 21 23 0.0 1.6 0.00 0.00 0.00 87 1017.2
20260906062004 21 23 0.0 3.2 0.00 0.00 0.00 87 1017.1
20260906061503 21 23 0.0 3.2 0.00 0.00 0.00 87 1017.1
20260906061004 21 64 0.0 3.2 0.00 0.00 0.00 87 1017.1
20260906060503 21 57 0.0 1.6 0.00 0.00 0.00 87 1017.2
20260906060008 21 51 0.0 1.6 0.00 0.00 0.00 86 1017.2
20260906055504 21 59 0.0 1.6 0.00 0.00 0.00 86 1017.2
20260906055006 21 59 0.0 3.2 0.00 0.00 0.00 86 1017.2
20260906054005 21 44 0.0 1.6 0.00 0.00 0.00 86 1017.2
20260906053008 22 61 0.0 6.4 0.00 0.00 0.00 85 1017.2
20260906052507 22 61 0.0 6.4 0.00 0.00 0.00 85 1017.2
20260906052005 22 42 0.0 3.2 0.00 0.00 0.00 85 1017.0
20260906051005 22 30 0.0 3.2 0.00 0.00 0.00 85 1017.0
20260906050508 22 74 0.0 1.6 0.00 0.00 0.00 85 1016.9
20260906050015 22 74 0.0 1.6 0.00 0.00 0.00 85 1017.0
20260906045505 22 74 0.0 1.6 0.00 0.00 0.00 85 1016.9
20260906045007 22 74 0.0 4.8 0.00 0.00 0.00 85 1016.9
20260906044505 22 78 0.0 4.8 0.00 0.00 0.00 85 1016.8
20260906044009 22 25 0.0 3.2 0.00 0.00 0.00 85 1016.8
20260906043505 22 5 0.0 3.2 0.00 0.00 0.00 85 1016.7
20260906043009 22 48 0.0 4.8 0.00 0.00 0.00 85 1016.6
20260906042505 22 43 0.0 4.8 0.00 0.00 0.00 85 1016.4
20260906042007 22 56 0.0 3.2 0.00 0.00 0.00 85 1016.3
20260906041504 22 48 0.0 3.2 0.00 0.00 0.00 85 1016.3
20260906041007 22 61 0.0 3.2 0.00 0.00 0.00 85 1016.1
20260906040504 22 63 0.0 3.2 0.00 0.00 0.00 85 1016.1
20260906040006 22 69 0.0 3.2 0.00 0.00 0.00 85 1016.1
20260906035505 22 49 0.0 4.8 0.00 0.00 0.00 85 1016.1
20260906035009 22 61 0.0 6.4 0.00 0.00 0.00 85 1016.1
20260906034504 22 72 0.0 6.4 0.00 0.00 0.00 85 1016.1
20260906034005 22 51 0.0 6.4 0.00 0.00 0.00 85 1016.1
20260906033503 22 31 0.0 4.8 0.00 0.00 0.00 85 1016.0
20260906033009 22 56 0.0 1.6 0.00 0.00 0.00 85 1016.0
20260906032504 22 69 0.0 4.8 0.00 0.00 0.00 85 1016.1
20260906031506 22 61 0.0 4.8 0.00 0.00 0.00 84 1016.1
20260906031006 22 37 0.0 4.8 0.00 0.00 0.00 84 1016.2
20260906030504 22 52 0.0 4.8 0.00 0.00 0.00 84 1016.2
20260906030008 22 58 0.0 3.2 0.00 0.00 0.00 84 1016.1
20260906025505 22 86 0.0 3.2 0.00 0.00 0.00 84 1016.2
20260906025007 22 69 0.0 6.4 0.00 0.00 0.00 84 1016.2
20260906024504 22 68 0.0 6.4 0.00 0.00 0.00 83 1016.2
20260906024010 22 346 0.0 4.8 0.00 0.00 0.00 83 1016.1
20260906023507 22 69 0.0 6.4 0.00 0.00 0.00 83 1016.0
20260906023010 22 53 0.0 6.4 0.00 0.00 0.00 83 1016.0
20260906022508 22 26 0.0 4.8 0.00 0.00 0.00 83 1015.9
20260906021504 22 61 0.0 4.8 0.00 0.00 0.00 83 1015.9
20260906021006 22 63 1.6 6.4 0.00 0.00 0.00 83 1015.8
20260906020504 22 42 1.6 14.5 0.00 0.00 0.00 83 1015.8
20260906020007 22 36 0.0 14.5 0.00 0.00 0.00 83 1016.0
20260906015504 22 5 0.0 4.8 0.00 0.00 0.00 83 1016.0
20260906015005 22 28 1.6 8.0 0.00 0.00 0.00 83 1016.1
20260906014504 22 42 1.6 8.0 0.00 0.00 0.00 83 1016.2
20260906014005 22 74 1.6 6.4 0.00 0.00 0.00 83 1016.1
20260906013503 22 42 0.0 6.4 0.00 0.00 0.00 83 1016.1
20260906013005 22 43 1.6 6.4 0.00 0.00 0.00 83 1016.1
20260906011504 22 20 1.6 8.0 0.00 0.00 0.00 84 1016.2
20260906010504 22 54 0.0 8.0 0.00 0.00 0.00 84 1016.1
20260906010007 22 65 0.0 4.8 0.00 0.00 0.00 83 1016.2
20260906005005 22 19 1.6 14.5 0.00 0.00 0.00 83 1015.9
20260906004009 22 25 1.6 8.0 0.00 0.00 0.00 83 1015.8
20260906003504 22 46 3.2 8.0 0.00 0.00 0.00 83 1015.6
20260906002503 22 24 3.2 9.7 0.00 0.00 0.00 82 1015.6
20260906002005 22 74 1.6 9.7 0.00 0.00 0.00 83 1015.6
20260906001503 22 51 1.6 9.7 0.00 0.00 0.00 83 1015.5
20260906000503 22 64 3.2 8.0 0.00 0.00 0.00 83 1015.5
20260906000008 22 67 3.2 9.7 0.00 0.00 0.00 83 1015.5
20260905235505 22 42 3.2 9.7 0.00 0.00 0.00 83 1015.5
20260905235009 22 76 3.2 9.7 0.00 0.00 0.00 82 1015.6
20260905234508 23 17 3.2 14.5 0.00 0.00 0.00 82 1015.6
20260905234006 23 34 3.2 14.5 0.00 0.00 0.00 81 1015.5
20260905233505 23 66 1.6 8.0 0.00 0.00 0.00 81 1015.5
20260905233007 23 62 3.2 9.7 0.00 0.00 0.00 80 1015.4
20260905232504 23 37 3.2 12.9 0.00 0.00 0.00 80 1015.4
20260905232006 24 39 1.6 12.9 0.00 0.00 0.00 79 1015.4
20260905231007 25 64 3.2 9.7 0.00 0.00 0.00 78 1015.2
20260905230008 25 67 1.6 4.8 0.00 0.00 0.00 78 1014.8
20260905225505 25 41 1.6 8.0 0.00 0.00 0.00 77 1014.9
20260905225006 25 42 3.2 8.0 0.00 0.00 0.00 76 1014.9
20260905223007 26 360 1.6 14.5 0.00 0.00 0.00 73 1014.7
20260905222505 26 67 1.6 6.4 0.00 0.00 0.00 73 1014.6
20260905222006 27 57 1.6 8.0 0.00 0.00 0.00 72 1014.6
20260905221504 27 43 0.0 8.0 0.00 0.00 0.00 72 1014.6
20260905221007 27 13 1.6 8.0 0.00 0.00 0.00 73 1014.8
20260905220011 26 24 1.6 6.4 0.00 0.00 0.00 73 1014.8
20260905215005 27 49 1.6 8.0 0.00 0.00 0.00 71 1014.6
20260905214503 27 54 1.6 8.0 0.00 0.00 0.00 71 1014.5
20260905214008 27 273 0.0 6.4 0.00 0.00 0.00 70 1014.6
20260905213503 27 53 0.0 6.4 0.00 0.00 0.00 72 1014.6
20260905213006 27 288 0.0 6.4 0.00 0.00 0.00 74 1014.6
20260905212503 26 57 1.6 6.4 0.00 0.00 0.00 73 1014.5
20260905212006 26 42 1.6 6.4 0.00 0.00 0.00 73 1014.5
20260905211504 26 59 1.6 8.0 0.00 0.00 0.00 74 1014.6
20260905211005 26 24 1.6 8.0 0.00 0.00 0.00 73 1014.4
20260905210503 26 59 1.6 6.4 0.00 0.00 0.00 73 1014.5
20260905210005 26 68 0.0 4.8 0.00 0.00 0.00 74 1014.5
20260905205503 26 34 0.0 4.8 0.00 0.00 0.00 75 1014.6
20260905205006 26 49 1.6 4.8 0.00 0.00 0.00 75 1014.7
20260905204503 26 49 1.6 8.0 0.00 0.00 0.00 75 1014.8
20260905204005 26 46 1.6 8.0 0.00 0.00 0.00 77 1014.8
20260905203506 25 286 0.0 6.4 0.00 0.00 0.00 78 1014.7
20260905203006 25 37 0.0 3.2 0.00 0.00 0.00 80 1014.9
20260905202004 25 45 3.2 9.7 0.00 0.00 0.00 79 1014.9
20260905201504 25 38 1.6 9.7 0.00 0.00 0.00 79 1014.9
20260905201007 25 39 1.6 9.7 0.00 0.00 0.00 79 1015.0
20260905200503 25 5 1.6 6.4 0.00 0.00 0.00 79 1015.0
20260905195004 25 34 1.6 8.0 0.00 0.00 0.00 79 1014.9
20260905194504 25 36 3.2 12.9 0.00 0.00 0.00 79 1015.0
20260905193504 25 10 1.6 8.0 0.00 0.00 0.00 79 1015.0
20260905193006 25 53 1.6 8.0 0.00 0.00 0.00 79 1015.1
20260905192503 25 32 1.6 9.7 0.00 0.00 0.00 79 1015.2
20260905192006 25 37 3.2 9.7 0.00 0.00 0.00 79 1015.1
20260905191504 25 37 1.6 6.4 0.00 0.00 0.00 80 1015.2
20260905190503 25 355 3.2 9.7 0.00 0.00 0.00 79 1015.2
20260905190004 25 14 1.6 8.0 0.00 0.00 0.00 79 1015.3
20260905185502 25 51 1.6 9.7 0.00 0.00 0.00 79 1015.2
20260905185005 25 12 3.2 9.7 0.00 0.00 0.00 79 1015.2
20260905184004 26 32 1.6 9.7 0.00 0.00 0.00 78 1015.2
20260905183003 26 50 1.6 8.0 0.00 0.00 0.00 78 1015.3
20260905181503 26 53 3.2 9.7 0.00 0.00 0.00 77 1015.3
20260905181006 26 279 1.6 8.0 0.00 0.00 0.00 77 1015.2
20260905180008 26 61 3.2 8.0 0.00 0.00 0.00 77 1015.2
20260905175504 26 70 3.2 8.0 0.00 0.00 0.00 76 1015.2
20260905175005 26 340 3.2 17.7 0.00 0.00 0.00 77 1015.2
20260905174506 26 21 3.2 17.7 0.00 0.00 0.00 76 1015.1
20260905173505 26 38 3.2 12.9 0.00 0.00 0.00 76 1015.0
20260905172504 26 24 1.6 6.4 0.00 0.00 0.00 76 1015.0
20260905172005 26 67 1.6 6.4 0.00 0.00 0.00 76 1015.0
20260905171504 26 55 1.6 6.4 0.00 0.00 0.00 78 1015.0
20260905171005 26 38 1.6 9.7 0.00 0.00 0.00 78 1015.0
20260905170503 26 56 1.6 6.4 0.00 0.00 0.00 77 1015.1
20260905170006 26 31 1.6 9.7 0.00 0.00 0.00 78 1015.1
20260905165503 26 275 1.6 9.7 0.00 0.00 0.00 78 1015.3
20260905165005 26 298 1.6 9.7 0.00 0.00 0.00 78 1015.2
20260905164503 26 13 1.6 9.7 0.00 0.00 0.00 77 1015.2
20260905163504 27 51 1.6 14.5 0.00 0.00 0.00 76 1015.2
20260905162504 27 63 1.6 6.4 0.00 0.00 0.00 76 1015.1
20260905162004 27 71 1.6 6.4 0.00 0.00 0.00 76 1015.1
20260905161504 27 55 1.6 6.4 0.00 0.00 0.00 75 1015.2
20260905160504 27 80 1.6 9.7 0.00 0.00 0.00 75 1015.1
20260905155506 27 48 0.0 3.2 0.00 0.00 0.00 75 1015.1
20260905154506 27 54 1.6 6.4 0.00 0.00 0.00 78 1014.9
20260905154006 26 53 1.6 6.4 0.00 0.00 0.00 77 1014.9
20260905153506 26 75 1.6 6.4 0.00 0.00 0.00 77 1015.0
20260905153004 26 49 1.6 6.4 0.00 0.00 0.00 78 1014.8
20260905152504 26 46 1.6 6.4 0.00 0.00 0.00 79 1014.8
20260905152005 26 48 0.0 4.8 0.00 0.00 0.00 80 1014.7
20260905151505 26 60 1.6 6.4 0.00 0.00 0.00 81 1014.7
20260905151006 25 63 1.6 8.0 0.00 0.00 0.00 82 1014.7
20260905150503 25 46 1.6 8.0 0.00 0.00 0.00 81 1014.7
20260905150007 25 61 0.0 4.8 0.00 0.00 0.00 81 1014.6
20260905145504 25 18 1.6 4.8 0.00 0.00 0.00 81 1014.6
20260905145005 25 49 1.6 6.4 0.00 0.00 0.00 82 1014.6
20260905144503 25 42 0.0 6.4 0.00 0.00 0.00 82 1014.6
20260905144005 25 57 0.0 4.8 0.00 0.00 0.00 82 1014.6
20260905143503 25 42 1.6 9.7 0.00 0.00 0.00 82 1014.6
20260905143004 25 5 1.6 9.7 0.00 0.00 0.00 83 1014.6
20260905142503 25 34 1.6 9.7 0.00 0.00 0.00 83 1014.5
20260905142005 25 44 1.6 9.7 0.00 0.00 0.00 84 1014.5
20260905141503 24 51 0.0 4.8 0.00 0.00 0.00 85 1014.3
20260905141005 24 43 1.6 8.0 0.00 0.00 0.00 86 1014.4
20260905140007 23 20 1.6 6.4 0.00 0.00 0.00 87 1014.2
20260905134503 23 34 1.6 8.0 0.00 0.00 0.00 88 1014.3
20260905134004 23 26 1.6 4.8 0.00 0.00 0.00 90 1014.3
20260905133503 23 20 1.6 14.5 0.00 0.00 0.00 89 1014.5
20260905133004 23 19 1.6 14.5 0.00 0.00 0.00 89 1014.5
20260905132503 23 55 1.6 4.8 0.00 0.00 0.00 90 1014.6
20260905132007 23 59 1.6 6.4 0.00 0.00 0.00 90 1014.7
20260905131505 23 26 1.6 6.4 0.00 0.00 0.00 89 1014.6
20260905131004 23 28 1.6 6.4 0.00 0.00 0.00 89 1014.3
20260905130505 23 69 0.0 4.8 0.00 0.00 0.00 90 1014.2
20260905130004 23 45 0.0 4.8 0.00 0.00 0.00 90 1014.0
20260905125506 23 59 1.6 6.4 0.00 0.00 0.00 90 1014.0
20260905125005 23 40 1.6 6.4 0.00 0.00 0.00 90 1013.8
20260905124503 23 15 0.0 4.8 0.00 0.00 0.00 90 1013.8
20260905124008 23 56 0.0 3.2 0.00 0.00 0.00 90 1013.8
20260905123503 23 53 0.0 3.2 0.00 0.00 0.00 90 1013.7
20260905123005 23 54 0.0 3.2 0.00 0.00 0.00 90 1013.7
20260905122503 23 51 0.0 3.2 0.00 0.00 0.00 90 1013.6
20260905122005 23 51 0.0 3.2 0.00 0.00 0.00 90 1013.5